When you browse on this site, cookies collect data to enhance your experience and personalize the content and advertising you see.
Visit our Privacy Policy to learn more. By continuing to use the site, you agree to this use of cookies and data.
  • In Germany
  • List of Countries
  • For 7 days
  • Water Temperature
  • Satellite Maps
  • Weather Map
  • Weather Widgets
  • user-avatar
    Login

    Hourly Weather Saurimo

    Today, 19 March, Tuesday

    Time Temperature Precipitation Wind Pressure Humidity
    00:00 +23°C° 0 mm 1 mps 669 mmHg 80%
    01:00 +21°C° 0 mm 0 mps 669 mmHg 82%
    02:00 +22°C° 0 mm 1 mps 669 mmHg 83%
    03:00 +22°C° 0 mm 1 mps 669 mmHg 85%
    04:00 +22°C° 0 mm 1 mps 669 mmHg 86%
    05:00 +22°C° 0 mm 1 mps 669 mmHg 85%
    06:00 +23°C° 0 mm 1 mps 670 mmHg 84%
    07:00 +23°C° 0 mm 1 mps 670 mmHg 83%
    08:00 +25°C° 0.8 mm 1 mps 671 mmHg 79%
    09:00 +27°C° 0.8 mm 1 mps 671 mmHg 75%
    10:00 +28°C° 0.8 mm 1 mps 671 mmHg 71%
    11:00 +29°C° 0.7 mm 1 mps 671 mmHg 64%
    12:00 +30°C° 0.7 mm 1 mps 671 mmHg 58%
    13:00 +31°C° 0.7 mm 1 mps 671 mmHg 51%
    14:00 +31°C° 0 mm 1 mps 670 mmHg 55%
    15:00 +30°C° 0 mm 1 mps 670 mmHg 59%
    16:00 +29°C° 0 mm 1 mps 669 mmHg 62%
    17:00 +27°C° 0.1 mm 1 mps 669 mmHg 70%
    18:00 +26°C° 0.1 mm 1 mps 669 mmHg 78%
    19:00 +24°C° 0.1 mm 1 mps 669 mmHg 85%
    20:00 +23°C° 0 mm 1 mps 669 mmHg 86%
    21:00 +21°C° 0 mm 0 mps 669 mmHg 86%
    22:00 +20°C° 0 mm 0 mps 669 mmHg 86%
    23:00 +20°C° 0 mm 0 mps 669 mmHg 88%

    Tomorrow, 20 March, Wednesday

    Time Temperature Precipitation Wind Pressure Humidity
    00:00 +22°C° 0 mm 1 mps 668 mmHg 89%
    01:00 +21°C° 0 mm 1 mps 668 mmHg 90%
    02:00 +21°C° 0 mm 1 mps 668 mmHg 90%
    03:00 +21°C° 0 mm 1 mps 668 mmHg 91%
    04:00 +21°C° 0 mm 1 mps 668 mmHg 91%
    05:00 +21°C° 0.7 mm 1 mps 668 mmHg 90%
    06:00 +22°C° 0.7 mm 1 mps 669 mmHg 90%
    07:00 +22°C° 0.7 mm 1 mps 669 mmHg 89%
    08:00 +25°C° 0 mm 1 mps 670 mmHg 78%
    09:00 +28°C° 0 mm 1 mps 670 mmHg 66%
    10:00 +31°C° 0 mm 1 mps 671 mmHg 55%
    11:00 +32°C° 0 mm 2 mps 671 mmHg 51%
    12:00 +32°C° 0 mm 2 mps 670 mmHg 47%
    13:00 +34°C° 0 mm 2 mps 669 mmHg 43%
    14:00 +32°C° 0 mm 2 mps 669 mmHg 47%
    15:00 +31°C° 0 mm 2 mps 668 mmHg 52%
    16:00 +31°C° 0 mm 2 mps 668 mmHg 57%
    17:00 +29°C° 0.2 mm 1 mps 668 mmHg 63%
    18:00 +27°C° 0.2 mm 1 mps 668 mmHg 68%
    19:00 +25°C° 0.2 mm 1 mps 668 mmHg 73%
    20:00 +24°C° 0.8 mm 1 mps 668 mmHg 78%
    21:00 +23°C° 0.8 mm 1 mps 669 mmHg 83%
    22:00 +22°C° 0.8 mm 1 mps 669 mmHg 87%
    23:00 +21°C° 0.1 mm 1 mps 669 mmHg 90%

    Day after tomorrow, 21 March, Thursday

    Time Temperature Precipitation Wind Pressure Humidity
    00:00 +21°C° 0.1 mm 1 mps 668 mmHg 93%
    01:00 +20°C° 0.1 mm 1 mps 668 mmHg 96%
    02:00 +20°C° 0 mm 1 mps 668 mmHg 97%
    03:00 +20°C° 0 mm 1 mps 668 mmHg 97%
    04:00 +20°C° 0 mm 1 mps 668 mmHg 98%
    05:00 +20°C° 0.3 mm 1 mps 669 mmHg 96%
    06:00 +21°C° 0.3 mm 1 mps 669 mmHg 95%
    07:00 +22°C° 0.3 mm 1 mps 670 mmHg 93%
    08:00 +24°C° 0.7 mm 1 mps 671 mmHg 86%
    09:00 +26°C° 0.7 mm 1 mps 671 mmHg 79%
    10:00 +29°C° 0.7 mm 1 mps 672 mmHg 71%
    11:00 +30°C° 0.3 mm 1 mps 672 mmHg 63%
    12:00 +30°C° 0.3 mm 2 mps 671 mmHg 54%
    13:00 +31°C° 0.3 mm 2 mps 671 mmHg 46%
    14:00 +30°C° 0 mm 2 mps 670 mmHg 51%
    15:00 +30°C° 0 mm 2 mps 670 mmHg 55%
    16:00 +29°C° 0 mm 2 mps 669 mmHg 60%
    17:00 +27°C° 0 mm 1 mps 669 mmHg 61%
    18:00 +26°C° 0 mm 1 mps 669 mmHg 62%
    19:00 +24°C° 0 mm 1 mps 669 mmHg 63%
    20:00 +23°C° 0 mm 1 mps 669 mmHg 66%
    21:00 +22°C° 0 mm 1 mps 670 mmHg 69%
    22:00 +21°C° 0 mm 1 mps 670 mmHg 72%
    23:00 +21°C° 0 mm 1 mps 669 mmHg 75%

    22 March, Friday

    Time Temperature Precipitation Wind Pressure Humidity
    00:00 +20°C° 0 mm 1 mps 669 mmHg 79%
    01:00 +20°C° 0 mm 1 mps 668 mmHg 82%
    02:00 +20°C° 0 mm 1 mps 668 mmHg 81%
    03:00 +20°C° 0 mm 1 mps 668 mmHg 79%
    04:00 +19°C° 0 mm 1 mps 668 mmHg 78%
    05:00 +20°C° 0 mm 1 mps 668 mmHg 76%
    06:00 +21°C° 0 mm 1 mps 669 mmHg 74%
    07:00 +21°C° 0 mm 1 mps 670 mmHg 73%
    08:00 +24°C° 0 mm 1 mps 671 mmHg 65%
    09:00 +28°C° 0 mm 1 mps 671 mmHg 57%
    10:00 +31°C° 0 mm 1 mps 672 mmHg 49%
    11:00 +32°C° 0 mm 1 mps 672 mmHg 46%
    12:00 +33°C° 0 mm 1 mps 671 mmHg 42%
    13:00 +35°C° 0 mm 2 mps 671 mmHg 39%
    14:00 +33°C° 0 mm 1 mps 670 mmHg 41%
    15:00 +33°C° 0 mm 1 mps 670 mmHg 44%
    16:00 +32°C° 0 mm 1 mps 670 mmHg 47%
    17:00 +30°C° 0.1 mm 1 mps 670 mmHg 53%
    18:00 +27°C° 0.1 mm 1 mps 670 mmHg 60%
    19:00 +25°C° 0.1 mm 1 mps 670 mmHg 67%
    20:00 +24°C° 0.2 mm 1 mps 670 mmHg 71%
    21:00 +23°C° 0.2 mm 1 mps 670 mmHg 76%
    22:00 +22°C° 0.2 mm 1 mps 670 mmHg 80%
    23:00 +22°C° 0.2 mm 1 mps 669 mmHg 82%

    23 March, Saturday

    Time Temperature Precipitation Wind Pressure Humidity
    00:00 +21°C° 0.2 mm 1 mps 669 mmHg 83%
    01:00 +21°C° 0.2 mm 1 mps 669 mmHg 84%
    02:00 +20°C° 0 mm 1 mps 669 mmHg 84%
    03:00 +18°C° 0 mm 0 mps 668 mmHg 84%
    04:00 +18°C° 0 mm 0 mps 668 mmHg 84%
    05:00 +19°C° 0 mm 0 mps 669 mmHg 82%
    06:00 +19°C° 0 mm 0 mps 670 mmHg 80%
    07:00 +20°C° 0 mm 0 mps 670 mmHg 79%
    08:00 +23°C° 0.5 mm 0 mps 671 mmHg 72%
    09:00 +25°C° 0.5 mm 0 mps 672 mmHg 66%
    10:00 +30°C° 0.5 mm 1 mps 672 mmHg 60%
    11:00 +30°C° 1.1 mm 1 mps 671 mmHg 58%
    12:00 +30°C° 1.1 mm 2 mps 671 mmHg 56%
    13:00 +30°C° 1.1 mm 3 mps 670 mmHg 54%
    14:00 +30°C° 0 mm 3 mps 669 mmHg 55%
    15:00 +30°C° 0 mm 2 mps 669 mmHg 56%
    16:00 +29°C° 0 mm 2 mps 669 mmHg 57%
    17:00 +28°C° 0 mm 1 mps 669 mmHg 64%
    18:00 +26°C° 0 mm 1 mps 669 mmHg 70%
    19:00 +24°C° 0 mm 1 mps 669 mmHg 77%
    20:00 +23°C° 0.2 mm 1 mps 669 mmHg 79%
    21:00 +23°C° 0.2 mm 1 mps 669 mmHg 81%
    22:00 +23°C° 0.2 mm 1 mps 669 mmHg 83%
    23:00 +22°C° 0 mm 1 mps 669 mmHg 84%

    24 March, Sunday

    Time Temperature Precipitation Wind Pressure Humidity
    00:00 +22°C° 0 mm 1 mps 668 mmHg 85%
    01:00 +22°C° 0 mm 1 mps 668 mmHg 86%
    02:00 +21°C° 0 mm 1 mps 668 mmHg 87%
    03:00 +21°C° 0 mm 1 mps 668 mmHg 87%
    04:00 +21°C° 0 mm 1 mps 668 mmHg 88%
    05:00 +22°C° 0 mm 1 mps 669 mmHg 87%
    06:00 +22°C° 0 mm 1 mps 670 mmHg 87%
    07:00 +23°C° 0 mm 1 mps 670 mmHg 86%
    08:00 +25°C° 0 mm 1 mps 671 mmHg 77%
    09:00 +28°C° 0 mm 2 mps 671 mmHg 67%
    10:00 +30°C° 0 mm 2 mps 671 mmHg 58%
    11:00 +31°C° 0.1 mm 2 mps 671 mmHg 54%
    12:00 +32°C° 0.1 mm 2 mps 670 mmHg 51%
    13:00 +32°C° 0.1 mm 2 mps 670 mmHg 47%
    14:00 +32°C° 0 mm 2 mps 669 mmHg 50%
    15:00 +31°C° 0 mm 1 mps 669 mmHg 53%
    16:00 +31°C° 0 mm 1 mps 669 mmHg 56%
    17:00 +29°C° 0.2 mm 1 mps 669 mmHg 63%
    18:00 +27°C° 0.2 mm 1 mps 669 mmHg 70%
    19:00 +25°C° 0.2 mm 1 mps 668 mmHg 77%
    20:00 +24°C° 0.9 mm 1 mps 668 mmHg 81%
    21:00 +23°C° 0.9 mm 1 mps 668 mmHg 86%
    22:00 +22°C° 0.9 mm 1 mps 668 mmHg 90%
    23:00 +22°C° 1.1 mm 1 mps 668 mmHg 91%
    Show more